Weather in Kokorevo

Russia / Kirov Oblast     57°15′02″N   49°33′53″E
temp.,
°C
wind,
m/s
gust,
m/s
humid.,
%
clouds,
%
prec.,
mm/h
press.,
hPa
HPBL,
m
11 april, sun
sun1100:00+1ne11100100 0.0 102618
03:00+1nnw23100100 0.1 102770
06:00+1nnw23100100 0.0 102879
09:00+1nw24100100 0.0 1029100
12:00+2wnw34100100 0.0 1030135
15:00+2wnw23100100 0.0 1032154
18:00+1w23100100 0.0 1033116
21:00−1w2299100 0.0 103435
12 april, mon
mon1200:00−1nw2299100 0.0 103647
03:000n2399100 0.0 1037102
06:00+1ne12100100 0.0 1038100
09:00+2ene24100100 0.0 1039188
12:00+5ene349799 0.0 1040258
15:00+8ene2487100 0.0 1039412
18:00+4ene3394100 0.0 103939
21:00+3e3493100 0.0 103959
13 april, tue
tue1300:00+2ese3593100 0.0 103872
03:00+2ese369385 0.0 103798
06:00+3se389296 0.0 1037140
09:00+8sse478796 0.0 1036248
12:00+12s578262 0.0 1034431
15:00+14s477988 0.0 1033529
18:00+11s378990 0.0 1031113
21:00+8ssw4787100 0.0 103192
14 april, wed
wed1400:00+7ssw488567 0.0 1031105
03:00+5ssw468080 0.0 103074
06:00+6ssw357715 0.0 103083
09:00+12ssw455829 0.0 1029291
12:00+16ssw56469 0.0 1028832
15:00+17sw564121 0.0 10261130
18:00+13ssw34615 0.0 102551
21:00+10ssw467145 0.0 102574
15 april, thu
thu1500:00+8ssw467046 0.0 102478
03:00+6ssw347163 0.0 102349
06:00+6ssw357185 0.0 102381
09:00+12sw355492 0.0 1021358
12:00+15sw454599 0.0 1020882
15:00+17sw453889 0.0 10181373
18:00+14wsw2252100 0.0 101713
21:00+11wsw3361100 0.0 101724